Location: Montbazon
(47.2835°N, 0.6999°E)
Time: 17:11:04
(UTC+00:00)

Cosmos 1943 Rocket - Pass Details

Date: 08 November 2025
Orbit: 812 x 841 km, 71.0° (Epoch: 13 December)

Event Time Altitude Azimuth Distance (km) Brightness Sun altitude
Exits shadow 04:06:29 18° 353° (N) 1,899 4.0 -28.1°
Maximum altitude 04:10:07 40° 54° (NE) 1,193 3.3 -27.5°
Drops below altitude 10° 04:15:16 10° 123° (ESE) 2,400 5.2 -26.6°
Sets 04:17:49 0° 131° (SE) 3,327 5.9 -26.2°
